Time,TemperatureF,DewpointF,PressureIn,WindDirection,WindDirectionDegrees,WindSpeedMPH,WindSpeedGustMPH,Humidity,HourlyPrecipIn,Conditions,Clouds,dailyrainin,SoftwareType,DateUTC
2013-08-26 00:00:00,75.2,73.0,29.91,ESE,106,0.0,2.0,93,0.00,,,0.41,Wunderground v.1.15,2013-08-26 07:00:00,
2013-08-26 00:05:00,75.2,73.0,29.91,SE,141,0.0,2.0,93,0.00,,,0.41,Wunderground v.1.15,2013-08-26 07:05:00,
2013-08-26 00:10:00,75.3,73.1,29.90,West,262,1.0,7.0,93,0.00,,,0.41,Wunderground v.1.15,2013-08-26 07:10:00,
2013-08-26 00:15:00,75.3,72.8,29.90,NW,326,2.0,7.0,92,0.00,,,0.41,Wunderground v.1.15,2013-08-26 07:15:00,
2013-08-26 00:20:00,75.5,72.7,29.91,NNW,342,0.0,6.0,91,0.00,,,0.41,Wunderground v.1.15,2013-08-26 07:20:00,
2013-08-26 00:25:00,75.5,72.7,29.91,North,353,3.0,8.0,91,0.00,,,0.41,Wunderground v.1.15,2013-08-26 07:25:00,
2013-08-26 00:30:00,75.5,72.7,29.91,NNW,341,4.0,5.0,91,0.00,,,0.41,Wunderground v.1.15,2013-08-26 07:30:00,
2013-08-26 00:35:00,75.3,72.5,29.91,NNW,333,4.0,7.0,91,0.00,,,0.41,Wunderground v.1.15,2013-08-26 07:35:00,
2013-08-26 00:40:00,75.1,72.3,29.91,North,357,3.0,6.0,91,0.00,,,0.41,Wunderground v.1.15,2013-08-26 07:40:00,
2013-08-26 00:45:00,75.0,72.5,29.91,NNW,344,4.0,6.0,92,0.00,,,0.41,Wunderground v.1.15,2013-08-26 07:45:00,
2013-08-26 00:50:00,74.9,72.4,29.91,West,264,0.0,2.0,92,0.00,,,0.41,Wunderground v.1.15,2013-08-26 07:50:00,
2013-08-26 00:55:00,74.9,72.4,29.91,SW,218,0.0,2.0,92,0.00,,,0.41,Wunderground v.1.15,2013-08-26 07:55:00,
2013-08-26 01:00:00,75.0,72.5,29.91,NNE,29,0.0,1.0,92,0.00,,,0.00,Wunderground v.1.15,2013-08-26 08:00:00,
2013-08-26 01:05:00,75.1,72.6,29.91,NNE,27,2.0,4.0,92,0.00,,,0.00,Wunderground v.1.15,2013-08-26 08:05:00,
2013-08-26 01:10:00,75.1,72.3,29.91,NNW,346,5.0,6.0,91,0.00,,,0.00,Wunderground v.1.15,2013-08-26 08:10:00,
2013-08-26 01:15:00,75.0,72.2,29.91,North,1,3.0,7.0,91,0.00,,,0.00,Wunderground v.1.15,2013-08-26 08:15:00,
2013-08-26 01:20:00,74.8,72.0,29.91,North,1,0.0,3.0,91,0.00,,,0.00,Wunderground v.1.15,2013-08-26 08:20:00,
2013-08-26 01:25:00,74.7,71.9,29.91,NE,44,0.0,3.0,91,0.00,,,0.00,Wunderground v.1.15,2013-08-26 08:25:00,
2013-08-26 01:30:00,74.8,72.3,29.91,WNW,298,0.0,2.0,92,0.00,,,0.00,Wunderground v.1.15,2013-08-26 08:30:00,
2013-08-26 01:35:00,74.8,72.3,29.91,North,8,3.0,5.0,92,0.00,,,0.00,Wunderground v.1.15,2013-08-26 08:35:00,
2013-08-26 01:40:00,74.8,72.0,29.91,NW,312,3.0,3.0,91,0.00,,,0.00,Wunderground v.1.15,2013-08-26 08:40:00,
2013-08-26 01:45:00,74.6,72.1,29.91,WNW,285,1.0,4.0,92,0.00,,,0.00,Wunderground v.1.15,2013-08-26 08:45:00,
2013-08-26 01:50:00,74.5,72.0,29.91,West,273,0.0,2.0,92,0.00,,,0.00,Wunderground v.1.15,2013-08-26 08:50:00,
2013-08-26 01:55:00,74.4,72.2,29.91,ESE,113,0.0,2.0,93,0.00,,,0.01,Wunderground v.1.15,2013-08-26 08:55:00,
2013-08-26 02:00:00,74.4,72.2,29.91,East,79,0.0,1.0,93,0.00,,,0.01,Wunderground v.1.15,2013-08-26 09:00:00,
2013-08-26 02:05:00,74.6,72.4,29.91,NNE,15,0.0,3.0,93,0.00,,,0.01,Wunderground v.1.15,2013-08-26 09:05:00,
2013-08-26 02:10:00,74.8,72.6,29.90,NNW,327,4.0,4.0,93,0.04,,,0.02,Wunderground v.1.15,2013-08-26 09:10:00,
2013-08-26 02:15:00,74.7,72.5,29.91,WNW,299,1.0,4.0,93,0.04,,,0.02,Wunderground v.1.15,2013-08-26 09:15:00,
2013-08-26 02:20:00,74.5,72.3,29.92,West,280,2.0,3.0,93,0.04,,,0.02,Wunderground v.1.15,2013-08-26 09:20:00,
2013-08-26 02:25:00,74.3,72.1,29.92,WNW,288,3.0,4.0,93,0.00,,,0.02,Wunderground v.1.15,2013-08-26 09:25:00,
2013-08-26 02:30:00,74.2,72.0,29.92,NW,326,1.0,2.0,93,0.00,,,0.02,Wunderground v.1.15,2013-08-26 09:30:00,
2013-08-26 02:35:00,74.2,72.0,29.92,NNE,15,0.0,4.0,93,0.00,,,0.02,Wunderground v.1.15,2013-08-26 09:35:00,
2013-08-26 02:40:00,74.2,72.4,29.92,West,270,0.0,1.0,94,0.00,,,0.02,Wunderground v.1.15,2013-08-26 09:40:00,
2013-08-26 02:45:00,74.4,72.6,29.92,North,5,2.0,5.0,94,0.00,,,0.02,Wunderground v.1.15,2013-08-26 09:45:00,
2013-08-26 02:50:00,74.3,72.5,29.92,North,354,3.0,4.0,94,0.00,,,0.02,Wunderground v.1.15,2013-08-26 09:50:00,
2013-08-26 02:55:00,74.2,72.4,29.92,NNW,334,1.0,4.0,94,0.00,,,0.02,Wunderground v.1.15,2013-08-26 09:55:00,
2013-08-26 03:00:00,74.2,72.4,29.92,North,5,0.0,2.0,94,0.00,,,0.02,Wunderground v.1.15,2013-08-26 10:00:00,
2013-08-26 03:05:00,74.2,72.4,29.92,NNW,342,3.0,4.0,94,0.00,,,0.02,Wunderground v.1.15,2013-08-26 10:05:00,
2013-08-26 03:10:00,74.1,72.3,29.92,NNW,327,3.0,3.0,94,0.00,,,0.02,Wunderground v.1.15,2013-08-26 10:10:00,
2013-08-26 03:15:00,74.0,72.2,29.92,North,3,3.0,6.0,94,0.00,,,0.02,Wunderground v.1.15,2013-08-26 10:15:00,
2013-08-26 03:20:00,74.0,72.2,29.93,ESE,107,0.0,1.0,94,0.00,,,0.02,Wunderground v.1.15,2013-08-26 10:20:00,
2013-08-26 03:25:00,74.0,72.2,29.93,North,8,0.0,1.0,94,0.00,,,0.02,Wunderground v.1.15,2013-08-26 10:25:00,
2013-08-26 03:30:00,74.0,72.2,29.92,North,349,2.0,2.0,94,0.00,,,0.02,Wunderground v.1.15,2013-08-26 10:30:00,
2013-08-26 03:35:00,74.0,71.8,29.92,North,8,0.0,3.0,93,0.00,,,0.03,Wunderground v.1.15,2013-08-26 10:35:00,
2013-08-26 03:40:00,74.1,71.9,29.92,North,360,1.0,3.0,93,0.00,,,0.03,Wunderground v.1.15,2013-08-26 10:40:00,
2013-08-26 03:45:00,74.0,71.8,29.92,NNW,331,0.0,3.0,93,0.00,,,0.03,Wunderground v.1.15,2013-08-26 10:45:00,
2013-08-26 03:50:00,74.0,71.8,29.92,North,356,1.0,1.0,93,0.00,,,0.03,Wunderground v.1.15,2013-08-26 10:50:00,
2013-08-26 03:55:00,73.9,71.7,29.92,NNW,341,0.0,1.0,93,0.00,,,0.03,Wunderground v.1.15,2013-08-26 10:55:00,
2013-08-26 04:00:00,74.0,71.8,29.92,NNW,340,0.0,0.0,93,0.00,,,0.03,Wunderground v.1.15,2013-08-26 11:00:00,
2013-08-26 04:05:00,74.0,71.8,29.92,NNW,338,1.0,1.0,93,0.00,,,0.03,Wunderground v.1.15,2013-08-26 11:05:00,
2013-08-26 04:10:00,73.9,71.7,29.92,NW,319,2.0,2.0,93,0.00,,,0.03,Wunderground v.1.15,2013-08-26 11:10:00,
2013-08-26 04:15:00,73.7,71.9,29.92,NNW,347,2.0,2.0,94,0.00,,,0.03,Wunderground v.1.15,2013-08-26 11:15:00,
2013-08-26 04:20:00,73.7,71.9,29.92,NNW,346,0.0,1.0,94,0.00,,,0.03,Wunderground v.1.15,2013-08-26 11:20:00,
2013-08-26 04:25:00,73.7,71.9,29.92,North,349,1.0,1.0,94,0.00,,,0.03,Wunderground v.1.15,2013-08-26 11:25:00,
2013-08-26 04:30:00,73.8,72.0,29.92,NNW,340,0.0,0.0,94,0.00,,,0.03,Wunderground v.1.15,2013-08-26 11:30:00,
2013-08-26 04:35:00,73.9,72.1,29.92,NNE,13,2.0,3.0,94,0.00,,,0.03,Wunderground v.1.15,2013-08-26 11:35:00,
2013-08-26 04:40:00,74.0,71.8,29.93,NE,54,0.0,1.0,93,0.00,,,0.03,Wunderground v.1.15,2013-08-26 11:40:00,
2013-08-26 04:45:00,74.0,71.8,29.93,North,8,0.0,1.0,93,0.00,,,0.03,Wunderground v.1.15,2013-08-26 11:45:00,
2013-08-26 04:50:00,73.9,71.7,29.93,North,6,0.0,0.0,93,0.00,,,0.03,Wunderground v.1.15,2013-08-26 11:50:00,
2013-08-26 04:55:00,73.9,71.7,29.92,NNW,346,0.0,1.0,93,0.00,,,0.03,Wunderground v.1.15,2013-08-26 11:55:00,
2013-08-26 05:00:00,73.9,71.7,29.92,NNE,29,2.0,4.0,93,0.00,,,0.03,Wunderground v.1.15,2013-08-26 12:00:00,
2013-08-26 05:05:00,73.8,71.6,29.91,North,358,6.0,7.0,93,0.00,,,0.03,Wunderground v.1.15,2013-08-26 12:05:00,
2013-08-26 05:10:00,73.6,71.4,29.91,NNW,342,2.0,3.0,93,0.00,,,0.04,Wunderground v.1.15,2013-08-26 12:10:00,
2013-08-26 05:15:00,73.5,71.4,29.92,NNE,16,3.0,3.0,93,0.00,,,0.04,Wunderground v.1.15,2013-08-26 12:15:00,
2013-08-26 05:20:00,73.3,71.2,29.92,NNE,18,5.0,5.0,93,0.00,,,0.04,Wunderground v.1.15,2013-08-26 12:20:00,
2013-08-26 05:25:00,73.2,71.1,29.92,NNW,337,1.0,6.0,93,0.00,,,0.04,Wunderground v.1.15,2013-08-26 12:25:00,
2013-08-26 05:30:00,73.2,71.4,29.92,North,1,3.0,4.0,94,0.00,,,0.04,Wunderground v.1.15,2013-08-26 12:30:00,
2013-08-26 05:35:00,73.2,71.4,29.93,North,356,1.0,4.0,94,0.00,,,0.04,Wunderground v.1.15,2013-08-26 12:35:00,
2013-08-26 05:40:00,73.2,71.4,29.93,NNW,338,0.0,1.0,94,0.00,,,0.04,Wunderground v.1.15,2013-08-26 12:40:00,
2013-08-26 05:45:00,73.2,71.4,29.94,NNW,338,1.0,1.0,94,0.00,,,0.04,Wunderground v.1.15,2013-08-26 12:45:00,
2013-08-26 05:50:00,73.2,71.4,29.94,NNW,334,0.0,1.0,94,0.00,,,0.04,Wunderground v.1.15,2013-08-26 12:50:00,
2013-08-26 05:55:00,73.2,71.4,29.94,NNW,336,0.0,2.0,94,0.00,,,0.04,Wunderground v.1.15,2013-08-26 12:55:00,
2013-08-26 06:00:00,73.2,71.4,29.94,NNW,342,0.0,0.0,94,0.00,,,0.04,Wunderground v.1.15,2013-08-26 13:00:00,
2013-08-26 06:05:00,73.2,71.4,29.94,NNW,343,1.0,1.0,94,0.00,,,0.04,Wunderground v.1.15,2013-08-26 13:05:00,
2013-08-26 06:09:00,73.2,71.4,29.94,North,360,1.0,3.0,94,0.00,,,0.04,Wunderground v.1.15,2013-08-26 13:09:00,
2013-08-26 06:14:00,73.2,71.7,29.94,North,359,2.0,2.0,95,0.00,,,0.04,Wunderground v.1.15,2013-08-26 13:14:00,
2013-08-26 06:19:00,73.2,71.7,29.94,North,354,1.0,2.0,95,0.00,,,0.04,Wunderground v.1.15,2013-08-26 13:19:00,
2013-08-26 06:24:00,73.2,71.7,29.94,NNW,348,2.0,2.0,95,0.00,,,0.04,Wunderground v.1.15,2013-08-26 13:24:00,
2013-08-26 06:29:00,73.2,71.7,29.94,NNW,338,1.0,4.0,95,0.00,,,0.04,Wunderground v.1.15,2013-08-26 13:29:00,
2013-08-26 06:34:00,73.3,71.8,29.94,NNW,336,2.0,6.0,95,0.00,,,0.04,Wunderground v.1.15,2013-08-26 13:34:00,
2013-08-26 06:39:00,73.3,71.5,29.94,North,8,3.0,6.0,94,0.00,,,0.04,Wunderground v.1.15,2013-08-26 13:39:00,
2013-08-26 06:44:00,73.2,71.4,29.94,North,358,4.0,7.0,94,0.00,,,0.04,Wunderground v.1.15,2013-08-26 13:44:00,
2013-08-26 06:49:00,73.2,71.4,29.94,NNW,346,4.0,7.0,94,0.00,,,0.04,Wunderground v.1.15,2013-08-26 13:49:00,
2013-08-26 06:54:00,73.1,71.3,29.94,North,11,3.0,6.0,94,0.00,,,0.04,Wunderground v.1.15,2013-08-26 13:54:00,
2013-08-26 06:59:00,73.1,71.3,29.93,NNW,341,5.0,8.0,94,0.00,,,0.04,Wunderground v.1.15,2013-08-26 13:59:00,
2013-08-26 07:04:00,73.1,71.3,29.93,NNW,341,5.0,6.0,94,0.00,,,0.04,Wunderground v.1.15,2013-08-26 14:04:00,
2013-08-26 07:09:00,73.1,71.3,29.94,NNW,346,0.0,6.0,94,0.00,,,0.04,Wunderground v.1.15,2013-08-26 14:09:00,
2013-08-26 07:14:00,73.2,71.7,29.94,NNW,342,1.0,4.0,95,0.00,,,0.04,Wunderground v.1.15,2013-08-26 14:14:00,
2013-08-26 07:19:00,73.2,71.7,29.94,North,354,3.0,4.0,95,0.00,,,0.04,Wunderground v.1.15,2013-08-26 14:19:00,
2013-08-26 07:24:00,73.3,71.8,29.94,North,6,0.0,4.0,95,0.00,,,0.04,Wunderground v.1.15,2013-08-26 14:24:00,
2013-08-26 07:29:00,73.5,72.0,29.93,North,11,2.0,7.0,95,0.00,,,0.04,Wunderground v.1.15,2013-08-26 14:29:00,
2013-08-26 07:34:00,73.7,71.9,29.93,SE,127,0.0,8.0,94,0.00,,,0.04,Wunderground v.1.15,2013-08-26 14:34:00,
2013-08-26 07:39:00,74.0,71.8,29.93,NE,49,3.0,10.0,93,0.00,,,0.04,Wunderground v.1.15,2013-08-26 14:39:00,
2013-08-26 07:44:00,74.2,71.7,29.94,NE,38,4.0,10.0,92,0.00,,,0.04,Wunderground v.1.15,2013-08-26 14:44:00,
2013-08-26 07:49:00,74.4,71.6,29.94,NNE,18,4.0,10.0,91,0.00,,,0.04,Wunderground v.1.15,2013-08-26 14:49:00,
2013-08-26 07:54:00,74.7,71.9,29.94,NNE,30,2.0,7.0,91,0.00,,,0.04,Wunderground v.1.15,2013-08-26 14:54:00,
2013-08-26 07:59:00,74.9,71.8,29.94,ENE,66,6.0,7.0,90,0.00,,,0.04,Wunderground v.1.15,2013-08-26 14:59:00,
2013-08-26 08:04:00,75.0,71.5,29.94,WNW,297,3.0,5.0,89,0.00,,,0.04,Wunderground v.1.15,2013-08-26 15:04:00,
2013-08-26 08:09:00,75.1,71.6,29.94,NW,311,2.0,9.0,89,0.00,,,0.04,Wunderground v.1.15,2013-08-26 15:09:00,
2013-08-26 08:14:00,75.2,71.7,29.94,North,360,9.0,10.0,89,0.00,,,0.04,Wunderground v.1.15,2013-08-26 15:14:00,
2013-08-26 08:19:00,75.1,71.6,29.94,NNE,22,4.0,10.0,89,0.00,,,0.04,Wunderground v.1.15,2013-08-26 15:19:00,
2013-08-26 08:24:00,75.1,72.0,29.94,North,354,2.0,9.0,90,0.00,,,0.04,Wunderground v.1.15,2013-08-26 15:24:00,
2013-08-26 08:29:00,75.1,72.0,29.95,NNW,332,3.0,9.0,90,0.00,,,0.04,Wunderground v.1.15,2013-08-26 15:29:00,
2013-08-26 08:34:00,75.2,72.1,29.94,South,176,3.0,8.0,90,0.00,,,0.04,Wunderground v.1.15,2013-08-26 15:34:00,
2013-08-26 08:39:00,75.4,72.3,29.94,East,94,2.0,9.0,90,0.00,,,0.04,Wunderground v.1.15,2013-08-26 15:39:00,
2013-08-26 08:44:00,75.6,72.5,29.94,NW,311,1.0,9.0,90,0.00,,,0.04,Wunderground v.1.15,2013-08-26 15:44:00,
2013-08-26 08:49:00,75.7,72.2,29.94,NNE,21,2.0,11.0,89,0.00,,,0.04,Wunderground v.1.15,2013-08-26 15:49:00,
2013-08-26 08:54:00,75.9,72.4,29.94,East,90,1.0,8.0,89,0.00,,,0.04,Wunderground v.1.15,2013-08-26 15:54:00,
2013-08-26 08:59:00,76.2,72.7,29.94,North,8,7.0,8.0,89,0.00,,,0.04,Wunderground v.1.15,2013-08-26 15:59:00,
2013-08-26 09:04:00,76.4,72.6,29.94,WNW,297,1.0,8.0,88,0.00,,,0.04,Wunderground v.1.15,2013-08-26 16:04:00,
2013-08-26 09:09:00,76.9,72.0,29.95,North,8,5.0,11.0,85,0.00,,,0.04,Wunderground v.1.15,2013-08-26 16:09:00,
2013-08-26 09:14:00,77.6,72.0,29.95,NNE,15,9.0,11.0,83,0.00,,,0.04,Wunderground v.1.15,2013-08-26 16:14:00,
2013-08-26 09:19:00,78.3,72.3,29.95,WSW,243,2.0,11.0,82,0.00,,,0.04,Wunderground v.1.15,2013-08-26 16:19:00,
2013-08-26 09:24:00,79.0,71.9,29.95,North,360,6.0,12.0,79,0.00,,,0.04,Wunderground v.1.15,2013-08-26 16:24:00,
2013-08-26 09:29:00,79.0,72.3,29.95,NNW,347,9.0,12.0,80,0.00,,,0.04,Wunderground v.1.15,2013-08-26 16:29:00,
2013-08-26 09:34:00,79.3,72.6,29.95,ENE,74,6.0,11.0,80,0.00,,,0.04,Wunderground v.1.15,2013-08-26 16:34:00,
2013-08-26 09:39:00,79.3,71.5,29.94,WNW,296,8.0,15.0,77,0.00,,,0.04,Wunderground v.1.15,2013-08-26 16:39:00,
2013-08-26 09:44:00,79.4,71.6,29.94,NNE,16,8.0,13.0,77,0.00,,,0.04,Wunderground v.1.15,2013-08-26 16:44:00,
2013-08-26 09:49:00,79.5,71.3,29.94,North,359,9.0,13.0,76,0.00,,,0.04,Wunderground v.1.15,2013-08-26 16:49:00,
2013-08-26 09:54:00,79.9,71.7,29.94,NE,51,4.0,11.0,76,0.00,,,0.04,Wunderground v.1.15,2013-08-26 16:54:00,
2013-08-26 09:59:00,79.9,70.5,29.93,NNW,332,9.0,15.0,73,0.00,,,0.04,Wunderground v.1.15,2013-08-26 16:59:00,
2013-08-26 10:04:00,80.1,71.1,29.93,NNE,16,10.0,12.0,74,0.00,,,0.04,Wunderground v.1.15,2013-08-26 17:04:00,
2013-08-26 10:09:00,80.4,70.1,29.93,North,6,9.0,15.0,71,0.00,,,0.04,Wunderground v.1.15,2013-08-26 17:09:00,
2013-08-26 10:14:00,80.8,71.3,29.93,NNW,332,9.0,12.0,73,0.00,,,0.04,Wunderground v.1.15,2013-08-26 17:14:00,
2013-08-26 10:19:00,80.9,70.6,29.93,NNE,18,10.0,16.0,71,0.00,,,0.04,Wunderground v.1.15,2013-08-26 17:19:00,
2013-08-26 10:24:00,81.0,71.5,29.93,NW,326,7.0,12.0,73,0.00,,,0.04,Wunderground v.1.15,2013-08-26 17:24:00,
2013-08-26 10:29:00,81.2,70.9,29.92,North,353,6.0,13.0,71,0.00,,,0.04,Wunderground v.1.15,2013-08-26 17:29:00,
2013-08-26 10:34:00,81.6,70.0,29.92,NNW,330,8.0,12.0,68,0.00,,,0.04,Wunderground v.1.15,2013-08-26 17:34:00,
2013-08-26 10:39:00,81.8,70.6,29.92,NNE,20,8.0,12.0,69,0.00,,,0.04,Wunderground v.1.15,2013-08-26 17:39:00,
2013-08-26 10:44:00,82.1,70.5,29.92,NNW,330,8.0,13.0,68,0.00,,,0.04,Wunderground v.1.15,2013-08-26 17:44:00,
2013-08-26 10:49:00,82.4,70.3,29.92,NW,326,8.0,13.0,67,0.00,,,0.04,Wunderground v.1.15,2013-08-26 17:49:00,
2013-08-26 10:54:00,82.7,70.6,29.92,North,6,9.0,12.0,67,0.00,,,0.04,Wunderground v.1.15,2013-08-26 17:54:00,
2013-08-26 10:59:00,83.1,70.6,29.92,NNE,27,4.0,14.0,66,0.00,,,0.04,Wunderground v.1.15,2013-08-26 17:59:00,
2013-08-26 11:04:00,83.6,71.0,29.92,North,6,8.0,11.0,66,0.00,,,0.04,Wunderground v.1.15,2013-08-26 18:04:00,
2013-08-26 11:09:00,83.9,70.4,29.92,NNE,22,10.0,14.0,64,0.00,,,0.04,Wunderground v.1.15,2013-08-26 18:09:00,
2013-08-26 11:14:00,83.8,68.9,29.92,North,3,6.0,14.0,61,0.00,,,0.04,Wunderground v.1.15,2013-08-26 18:14:00,
2013-08-26 11:19:00,83.8,69.9,29.92,NNW,331,8.0,14.0,63,0.00,,,0.04,Wunderground v.1.15,2013-08-26 18:19:00,
2013-08-26 11:24:00,84.2,69.8,29.91,NNW,335,9.0,13.0,62,0.00,,,0.04,Wunderground v.1.15,2013-08-26 18:24:00,
2013-08-26 11:29:00,84.3,69.9,29.91,NNW,330,8.0,13.0,62,0.00,,,0.04,Wunderground v.1.15,2013-08-26 18:29:00,
2013-08-26 11:34:00,84.6,69.7,29.91,NNE,32,9.0,12.0,61,0.00,,,0.04,Wunderground v.1.15,2013-08-26 18:34:00,
2013-08-26 11:39:00,84.8,69.4,29.91,NNW,341,12.0,15.0,60,0.00,,,0.04,Wunderground v.1.15,2013-08-26 18:39:00,
2013-08-26 11:44:00,85.3,70.8,29.91,NNW,346,5.0,12.0,62,0.00,,,0.04,Wunderground v.1.15,2013-08-26 18:44:00,
2013-08-26 11:49:00,85.8,69.3,29.90,North,1,9.0,13.0,58,0.00,,,0.04,Wunderground v.1.15,2013-08-26 18:49:00,
2013-08-26 11:54:00,85.5,69.0,29.90,NNW,329,8.0,11.0,58,0.00,,,0.04,Wunderground v.1.15,2013-08-26 18:54:00,
2013-08-26 11:59:00,85.9,69.9,29.90,NNW,348,9.0,12.0,59,0.00,,,0.04,Wunderground v.1.15,2013-08-26 18:59:00,
2013-08-26 12:04:00,86.1,71.6,29.90,NW,326,8.0,11.0,62,0.00,,,0.04,Wunderground v.1.15,2013-08-26 19:04:00,
2013-08-26 12:09:00,86.1,71.6,29.89,NW,321,4.0,11.0,62,0.00,,,0.04,Wunderground v.1.15,2013-08-26 19:09:00,
2013-08-26 12:14:00,86.1,71.6,29.89,NW,323,6.0,8.0,62,0.00,,,0.04,Wunderground v.1.15,2013-08-26 19:14:00,
2013-08-26 12:19:00,86.5,70.0,29.89,NNW,348,7.0,10.0,58,0.00,,,0.04,Wunderground v.1.15,2013-08-26 19:19:00,
2013-08-26 12:24:00,86.8,71.7,29.89,North,8,7.0,11.0,61,0.00,,,0.04,Wunderground v.1.15,2013-08-26 19:24:00,
2013-08-26 12:29:00,87.3,70.2,29.89,NNW,335,10.0,12.0,57,0.00,,,0.04,Wunderground v.1.15,2013-08-26 19:29:00,
2013-08-26 12:34:00,87.2,70.1,29.89,NNE,19,4.0,10.0,57,0.00,,,0.04,Wunderground v.1.15,2013-08-26 19:34:00,
2013-08-26 12:39:00,87.1,70.5,29.88,NNW,342,9.0,11.0,58,0.00,,,0.04,Wunderground v.1.15,2013-08-26 19:39:00,
2013-08-26 12:44:00,87.0,69.9,29.88,NNW,338,8.0,13.0,57,0.00,,,0.04,Wunderground v.1.15,2013-08-26 19:44:00,
2013-08-26 12:49:00,87.3,69.7,29.88,NNW,333,7.0,13.0,56,0.00,,,0.04,Wunderground v.1.15,2013-08-26 19:49:00,
2013-08-26 12:54:00,87.1,71.0,29.88,NW,326,10.0,11.0,59,0.00,,,0.04,Wunderground v.1.15,2013-08-26 19:54:00,
2013-08-26 12:59:00,87.3,69.7,29.88,North,356,6.0,14.0,56,0.00,,,0.04,Wunderground v.1.15,2013-08-26 19:59:00,
2013-08-26 13:04:00,87.4,71.3,29.88,NE,39,6.0,10.0,59,0.00,,,0.04,Wunderground v.1.15,2013-08-26 20:04:00,
2013-08-26 13:09:00,88.0,70.3,29.88,NE,46,5.0,10.0,56,0.00,,,0.04,Wunderground v.1.15,2013-08-26 20:09:00,
2013-08-26 13:14:00,87.8,69.6,29.88,NNW,333,6.0,9.0,55,0.00,,,0.04,Wunderground v.1.15,2013-08-26 20:14:00,
2013-08-26 13:19:00,87.5,69.9,29.87,NE,48,4.0,12.0,56,0.00,,,0.04,Wunderground v.1.15,2013-08-26 20:19:00,
2013-08-26 13:24:00,87.7,70.6,29.87,North,4,8.0,12.0,57,0.00,,,0.04,Wunderground v.1.15,2013-08-26 20:24:00,
2013-08-26 13:29:00,88.0,69.3,29.87,NNW,348,8.0,13.0,54,0.00,,,0.04,Wunderground v.1.15,2013-08-26 20:29:00,
2013-08-26 13:34:00,87.9,69.2,29.87,NNW,346,7.0,13.0,54,0.00,,,0.04,Wunderground v.1.15,2013-08-26 20:34:00,
2013-08-26 13:39:00,88.0,71.4,29.86,North,8,7.0,13.0,58,0.00,,,0.04,Wunderground v.1.15,2013-08-26 20:39:00,
2013-08-26 13:43:00,88.4,71.7,29.86,NNW,338,7.0,12.0,58,0.00,,,0.04,Wunderground v.1.15,2013-08-26 20:43:00,
2013-08-26 13:48:00,88.3,70.1,29.86,NW,320,4.0,15.0,55,0.00,,,0.04,Wunderground v.1.15,2013-08-26 20:48:00,
2013-08-26 13:53:00,88.3,68.4,29.86,NNE,14,6.0,13.0,52,0.00,,,0.04,Wunderground v.1.15,2013-08-26 20:53:00,
2013-08-26 13:58:00,88.5,69.7,29.86,NW,322,5.0,13.0,54,0.00,,,0.04,Wunderground v.1.15,2013-08-26 20:58:00,
2013-08-26 14:03:00,88.5,69.7,29.86,NNE,13,5.0,12.0,54,0.00,,,0.04,Wunderground v.1.15,2013-08-26 21:03:00,
2013-08-26 14:08:00,88.6,70.4,29.85,NW,315,7.0,13.0,55,0.00,,,0.04,Wunderground v.1.15,2013-08-26 21:08:00,
2013-08-26 14:13:00,89.0,70.2,29.85,NW,307,4.0,9.0,54,0.00,,,0.04,Wunderground v.1.15,2013-08-26 21:13:00,
2013-08-26 14:18:00,89.2,69.8,29.85,NNW,335,7.0,13.0,53,0.00,,,0.04,Wunderground v.1.15,2013-08-26 21:18:00,
2013-08-26 14:23:00,89.7,69.2,29.84,WNW,285,11.0,11.0,51,0.00,,,0.04,Wunderground v.1.15,2013-08-26 21:23:00,
2013-08-26 14:28:00,89.8,69.3,29.84,NW,319,9.0,17.0,51,0.00,,,0.04,Wunderground v.1.15,2013-08-26 21:28:00,
2013-08-26 14:33:00,89.9,72.6,29.84,NNE,20,8.0,9.0,57,0.00,,,0.04,Wunderground v.1.15,2013-08-26 21:33:00,
2013-08-26 14:38:00,89.8,71.5,29.83,NNW,330,9.0,13.0,55,0.00,,,0.04,Wunderground v.1.15,2013-08-26 21:38:00,
2013-08-26 14:43:00,89.5,70.7,29.83,NNW,340,7.0,13.0,54,0.00,,,0.04,Wunderground v.1.15,2013-08-26 21:43:00,
2013-08-26 14:48:00,89.4,69.5,29.83,North,357,6.0,13.0,52,0.00,,,0.04,Wunderground v.1.15,2013-08-26 21:48:00,
2013-08-26 14:53:00,89.6,71.8,29.83,West,271,3.0,10.0,56,0.00,,,0.04,Wunderground v.1.15,2013-08-26 21:53:00,
2013-08-26 14:58:00,89.8,71.5,29.82,NNW,340,8.0,10.0,55,0.00,,,0.04,Wunderground v.1.15,2013-08-26 21:58:00,
2013-08-26 15:03:00,90.3,70.3,29.82,NNW,344,7.0,9.0,52,0.00,,,0.04,Wunderground v.1.15,2013-08-26 22:03:00,
2013-08-26 15:08:00,90.4,69.2,29.82,NNE,18,7.0,9.0,50,0.00,,,0.04,Wunderground v.1.15,2013-08-26 22:08:00,
2013-08-26 15:13:00,90.3,71.4,29.82,NNW,346,4.0,11.0,54,0.00,,,0.04,Wunderground v.1.15,2013-08-26 22:13:00,
2013-08-26 15:18:00,90.6,69.4,29.82,NW,318,4.0,11.0,50,0.00,,,0.04,Wunderground v.1.15,2013-08-26 22:18:00,
2013-08-26 15:23:00,90.6,72.8,29.81,NNW,337,7.0,10.0,56,0.00,,,0.04,Wunderground v.1.15,2013-08-26 22:23:00,
2013-08-26 15:28:00,90.8,71.3,29.81,North,4,5.0,11.0,53,0.00,,,0.04,Wunderground v.1.15,2013-08-26 22:28:00,
2013-08-26 15:33:00,90.8,71.3,29.81,ENE,68,1.0,8.0,53,0.00,,,0.04,Wunderground v.1.15,2013-08-26 22:33:00,
2013-08-26 15:38:00,91.6,70.3,29.81,North,349,4.0,8.0,50,0.00,,,0.04,Wunderground v.1.15,2013-08-26 22:38:00,
2013-08-26 15:43:00,91.8,70.5,29.80,NW,322,5.0,7.0,50,0.00,,,0.04,Wunderground v.1.15,2013-08-26 22:43:00,
2013-08-26 15:48:00,91.6,70.9,29.80,NW,324,5.0,8.0,51,0.00,,,0.04,Wunderground v.1.15,2013-08-26 22:48:00,
2013-08-26 15:53:00,91.4,71.9,29.80,West,269,4.0,9.0,53,0.00,,,0.04,Wunderground v.1.15,2013-08-26 22:53:00,
2013-08-26 15:58:00,91.6,70.3,29.80,NW,307,1.0,9.0,50,0.00,,,0.04,Wunderground v.1.15,2013-08-26 22:58:00,
2013-08-26 16:03:00,92.1,69.0,29.80,NW,316,3.0,4.0,47,0.00,,,0.04,Wunderground v.1.15,2013-08-26 23:03:00,
2013-08-26 16:08:00,92.6,72.4,29.79,NW,308,3.0,5.0,52,0.00,,,0.04,Wunderground v.1.15,2013-08-26 23:08:00,
2013-08-26 16:13:00,92.6,70.0,29.79,WNW,295,6.0,6.0,48,0.00,,,0.04,Wunderground v.1.15,2013-08-26 23:13:00,
2013-08-26 16:18:00,92.4,71.1,29.79,West,266,4.0,8.0,50,0.00,,,0.04,Wunderground v.1.15,2013-08-26 23:18:00,
2013-08-26 16:23:00,92.5,71.7,29.79,WNW,283,4.0,6.0,51,0.00,,,0.04,Wunderground v.1.15,2013-08-26 23:23:00,
2013-08-26 16:28:00,92.4,71.6,29.79,West,277,6.0,8.0,51,0.00,,,0.04,Wunderground v.1.15,2013-08-26 23:28:00,
2013-08-26 16:33:00,92.3,69.2,29.79,WNW,300,2.0,7.0,47,0.00,,,0.04,Wunderground v.1.15,2013-08-26 23:33:00,
2013-08-26 16:38:00,92.5,69.3,29.79,West,260,2.0,7.0,47,0.00,,,0.04,Wunderground v.1.15,2013-08-26 23:38:00,
2013-08-26 16:43:00,93.1,69.9,29.78,West,265,0.0,4.0,47,0.00,,,0.04,Wunderground v.1.15,2013-08-26 23:43:00,
2013-08-26 16:48:00,93.4,70.2,29.79,NW,311,3.0,4.0,47,0.00,,,0.04,Wunderground v.1.15,2013-08-26 23:48:00,
2013-08-26 16:53:00,93.0,73.3,29.78,West,272,3.0,7.0,53,0.00,,,0.04,Wunderground v.1.15,2013-08-26 23:53:00,
2013-08-26 16:58:00,92.0,71.3,29.78,West,281,5.0,9.0,51,0.00,,,0.04,Wunderground v.1.15,2013-08-26 23:58:00,
2013-08-26 17:03:00,91.4,71.9,29.78,WNW,290,3.0,7.0,53,0.00,,,0.04,Wunderground v.1.15,2013-08-27 00:03:00,
2013-08-26 17:08:00,91.1,71.6,29.78,WNW,288,4.0,7.0,53,0.00,,,0.04,Wunderground v.1.15,2013-08-27 00:08:00,
2013-08-26 17:13:00,91.5,70.8,29.78,NW,305,2.0,5.0,51,0.00,,,0.04,Wunderground v.1.15,2013-08-27 00:13:00,
2013-08-26 17:18:00,91.5,72.0,29.78,West,276,3.0,8.0,53,0.00,,,0.04,Wunderground v.1.15,2013-08-27 00:18:00,
2013-08-26 17:23:00,91.7,71.0,29.78,WNW,285,2.0,3.0,51,0.00,,,0.04,Wunderground v.1.15,2013-08-27 00:23:00,
2013-08-26 17:28:00,92.1,70.8,29.78,SW,236,1.0,3.0,50,0.00,,,0.04,Wunderground v.1.15,2013-08-27 00:28:00,
2013-08-26 17:33:00,91.8,73.3,29.77,WNW,300,3.0,5.0,55,0.00,,,0.04,Wunderground v.1.15,2013-08-27 00:33:00,
2013-08-26 17:38:00,91.8,72.8,29.77,NW,312,2.0,5.0,54,0.00,,,0.04,Wunderground v.1.15,2013-08-27 00:38:00,
2013-08-26 17:43:00,91.9,73.4,29.77,WNW,297,4.0,5.0,55,0.00,,,0.04,Wunderground v.1.15,2013-08-27 00:43:00,
2013-08-26 17:48:00,91.8,72.8,29.77,WSW,255,4.0,5.0,54,0.00,,,0.04,Wunderground v.1.15,2013-08-27 00:48:00,
2013-08-26 17:53:00,92.0,74.1,29.78,West,278,3.0,4.0,56,0.00,,,0.04,Wunderground v.1.15,2013-08-27 00:53:00,
2013-08-26 17:58:00,91.6,74.2,29.78,WNW,296,3.0,5.0,57,0.00,,,0.04,Wunderground v.1.15,2013-08-27 00:58:00,
2013-08-26 18:03:00,91.7,73.2,29.78,West,280,5.0,5.0,55,0.00,,,0.04,Wunderground v.1.15,2013-08-27 01:03:00,
2013-08-26 18:08:00,91.4,72.4,29.78,WNW,301,1.0,7.0,54,0.00,,,0.04,Wunderground v.1.15,2013-08-27 01:08:00,
2013-08-26 18:13:00,91.8,74.4,29.78,WNW,283,3.0,4.0,57,0.00,,,0.04,Wunderground v.1.15,2013-08-27 01:13:00,
2013-08-26 18:18:00,91.0,72.6,29.78,WSW,256,7.0,10.0,55,0.00,,,0.04,Wunderground v.1.15,2013-08-27 01:18:00,
2013-08-26 18:23:00,90.5,73.2,29.78,West,277,3.0,6.0,57,0.00,,,0.04,Wunderground v.1.15,2013-08-27 01:23:00,
2013-08-26 18:28:00,90.0,72.2,29.78,West,271,4.0,6.0,56,0.00,,,0.04,Wunderground v.1.15,2013-08-27 01:28:00,
2013-08-26 18:33:00,89.4,72.2,29.78,West,264,4.0,5.0,57,0.00,,,0.04,Wunderground v.1.15,2013-08-27 01:33:00,
2013-08-26 18:38:00,89.2,72.5,29.78,West,276,1.0,7.0,58,0.00,,,0.04,Wunderground v.1.15,2013-08-27 01:38:00,
2013-08-26 18:43:00,89.2,73.5,29.78,WNW,288,4.0,5.0,60,0.00,,,0.04,Wunderground v.1.15,2013-08-27 01:43:00,
2013-08-26 18:48:00,88.5,72.8,29.78,WSW,249,4.0,6.0,60,0.00,,,0.04,Wunderground v.1.15,2013-08-27 01:48:00,
2013-08-26 18:53:00,88.2,73.5,29.78,WSW,252,2.0,5.0,62,0.00,,,0.04,Wunderground v.1.15,2013-08-27 01:53:00,
2013-08-26 18:58:00,88.0,72.9,29.78,West,266,4.0,5.0,61,0.00,,,0.04,Wunderground v.1.15,2013-08-27 01:58:00,
2013-08-26 19:03:00,87.2,72.6,29.78,WNW,283,4.0,4.0,62,0.00,,,0.04,Wunderground v.1.15,2013-08-27 02:03:00,
2013-08-26 19:08:00,87.0,72.4,29.78,WSW,252,4.0,5.0,62,0.00,,,0.04,Wunderground v.1.15,2013-08-27 02:08:00,
2013-08-26 19:13:00,86.4,71.4,29.78,West,263,4.0,6.0,61,0.00,,,0.04,Wunderground v.1.15,2013-08-27 02:13:00,
2013-08-26 19:18:00,86.6,71.5,29.78,West,270,4.0,6.0,61,0.00,,,0.04,Wunderground v.1.15,2013-08-27 02:18:00,
2013-08-26 19:23:00,86.9,72.3,29.78,WSW,257,3.0,5.0,62,0.00,,,0.04,Wunderground v.1.15,2013-08-27 02:23:00,
2013-08-26 19:28:00,86.8,72.2,29.79,West,266,1.0,5.0,62,0.00,,,0.04,Wunderground v.1.15,2013-08-27 02:28:00,
2013-08-26 19:33:00,87.1,72.0,29.79,West,267,2.0,4.0,61,0.00,,,0.04,Wunderground v.1.15,2013-08-27 02:33:00,
2013-08-26 19:38:00,86.9,72.3,29.79,West,273,2.0,4.0,62,0.00,,,0.04,Wunderground v.1.15,2013-08-27 02:38:00,
2013-08-26 19:43:00,86.4,72.8,29.79,West,273,2.0,3.0,64,0.00,,,0.04,Wunderground v.1.15,2013-08-27 02:43:00,
2013-08-26 19:48:00,86.1,73.0,29.79,WSW,255,1.0,3.0,65,0.00,,,0.04,Wunderground v.1.15,2013-08-27 02:48:00,
2013-08-26 19:53:00,85.9,72.3,29.79,WSW,255,2.0,4.0,64,0.00,,,0.04,Wunderground v.1.15,2013-08-27 02:53:00,
2013-08-26 19:58:00,85.7,73.0,29.79,West,259,1.0,4.0,66,0.00,,,0.04,Wunderground v.1.15,2013-08-27 02:58:00,
2013-08-26 20:03:00,85.4,72.7,29.79,West,266,2.0,3.0,66,0.00,,,0.04,Wunderground v.1.15,2013-08-27 03:03:00,
2013-08-26 20:08:00,85.5,72.8,29.79,West,263,2.0,3.0,66,0.00,,,0.04,Wunderground v.1.15,2013-08-27 03:08:00,
2013-08-26 20:13:00,85.4,72.7,29.79,WSW,250,0.0,2.0,66,0.00,,,0.04,Wunderground v.1.15,2013-08-27 03:13:00,
2013-08-26 20:18:00,85.3,72.6,29.79,West,280,0.0,2.0,66,0.00,,,0.04,Wunderground v.1.15,2013-08-27 03:18:00,
2013-08-26 20:23:00,85.0,72.8,29.79,NW,312,0.0,1.0,67,0.00,,,0.04,Wunderground v.1.15,2013-08-27 03:23:00,
2013-08-26 20:28:00,84.8,72.6,29.79,WNW,291,0.0,2.0,67,0.00,,,0.04,Wunderground v.1.15,2013-08-27 03:28:00,
2013-08-26 20:33:00,84.9,72.7,29.79,West,262,0.0,2.0,67,0.00,,,0.04,Wunderground v.1.15,2013-08-27 03:33:00,
2013-08-26 20:37:00,85.0,72.8,29.80,West,260,0.0,2.0,67,0.00,,,0.04,Wunderground v.1.15,2013-08-27 03:37:00,
2013-08-26 20:42:00,84.9,72.3,29.80,WSW,253,0.0,1.0,66,0.00,,,0.04,Wunderground v.1.15,2013-08-27 03:42:00,
2013-08-26 20:47:00,84.8,72.2,29.80,SW,222,0.0,1.0,66,0.00,,,0.04,Wunderground v.1.15,2013-08-27 03:47:00,
2013-08-26 20:52:00,84.6,72.4,29.80,SW,222,0.0,0.0,67,0.00,,,0.04,Wunderground v.1.15,2013-08-27 03:52:00,
2013-08-26 20:57:00,84.4,72.7,29.81,SW,222,0.0,1.0,68,0.00,,,0.04,Wunderground v.1.15,2013-08-27 03:57:00,
2013-08-26 21:01:00,84.3,72.1,29.80,SW,235,0.0,2.0,67,0.00,,,0.04,Wunderground v.1.15,2013-08-27 04:01:00,
2013-08-26 21:06:00,84.4,72.2,29.80,SW,225,0.0,2.0,67,0.00,,,0.04,Wunderground v.1.15,2013-08-27 04:06:00,
2013-08-26 21:11:00,84.4,72.2,29.81,South,187,0.0,0.0,67,0.00,,,0.04,Wunderground v.1.15,2013-08-27 04:11:00,
2013-08-26 21:16:00,84.5,72.3,29.81,SSW,202,0.0,0.0,67,0.00,,,0.04,Wunderground v.1.15,2013-08-27 04:16:00,
2013-08-26 21:21:00,84.5,71.9,29.81,SW,218,0.0,1.0,66,0.00,,,0.04,Wunderground v.1.15,2013-08-27 04:21:00,
2013-08-26 21:26:00,84.5,71.9,29.81,SW,217,0.0,1.0,66,0.00,,,0.04,Wunderground v.1.15,2013-08-27 04:26:00,
2013-08-26 21:31:00,84.5,71.9,29.81,SW,215,0.0,0.0,66,0.00,,,0.04,Wunderground v.1.15,2013-08-27 04:31:00,
2013-08-26 21:36:00,84.5,72.3,29.81,SW,214,0.0,0.0,67,0.00,,,0.04,Wunderground v.1.15,2013-08-27 04:36:00,
2013-08-26 21:41:00,84.6,72.4,29.81,SW,217,0.0,0.0,67,0.00,,,0.04,Wunderground v.1.15,2013-08-27 04:41:00,
2013-08-26 21:46:00,84.6,72.9,29.82,SW,217,0.0,0.0,68,0.00,,,0.04,Wunderground v.1.15,2013-08-27 04:46:00,
2013-08-26 21:51:00,84.5,72.8,29.81,SW,215,0.0,1.0,68,0.00,,,0.04,Wunderground v.1.15,2013-08-27 04:51:00,
2013-08-26 21:56:00,84.5,72.8,29.81,SW,215,0.0,1.0,68,0.00,,,0.04,Wunderground v.1.15,2013-08-27 04:56:00,
2013-08-26 22:01:00,84.3,72.6,29.81,SW,215,0.0,0.0,68,0.00,,,0.04,Wunderground v.1.15,2013-08-27 05:01:00,
2013-08-26 22:06:00,84.1,72.4,29.81,SW,214,0.0,1.0,68,0.00,,,0.04,Wunderground v.1.15,2013-08-27 05:06:00,
2013-08-26 22:11:00,84.4,72.7,29.81,ESE,117,0.0,0.0,68,0.00,,,0.04,Wunderground v.1.15,2013-08-27 05:11:00,
2013-08-26 22:16:00,84.4,72.7,29.81,ESE,117,0.0,0.0,68,0.00,,,0.04,Wunderground v.1.15,2013-08-27 05:16:00,
2013-08-26 22:21:00,84.4,72.7,29.81,ESE,117,0.0,0.0,68,0.00,,,0.04,Wunderground v.1.15,2013-08-27 05:21:00,
2013-08-26 22:26:00,84.6,72.4,29.82,ESE,116,0.0,1.0,67,0.00,,,0.04,Wunderground v.1.15,2013-08-27 05:26:00,
2013-08-26 22:31:00,84.7,72.5,29.82,ESE,115,0.0,1.0,67,0.00,,,0.04,Wunderground v.1.15,2013-08-27 05:31:00,
2013-08-26 22:36:00,84.8,72.2,29.82,ESE,103,0.0,1.0,66,0.00,,,0.04,Wunderground v.1.15,2013-08-27 05:36:00,
2013-08-26 22:41:00,84.8,72.6,29.82,East,101,0.0,0.0,67,0.00,,,0.04,Wunderground v.1.15,2013-08-27 05:41:00,
2013-08-26 22:46:00,84.8,72.2,29.83,East,100,0.0,1.0,66,0.00,,,0.04,Wunderground v.1.15,2013-08-27 05:46:00,
2013-08-26 22:51:00,85.0,71.9,29.83,East,100,0.0,0.0,65,0.00,,,0.04,Wunderground v.1.15,2013-08-27 05:51:00,
2013-08-26 22:56:00,85.0,71.9,29.82,East,100,0.0,0.0,65,0.00,,,0.04,Wunderground v.1.15,2013-08-27 05:56:00,
2013-08-26 23:01:00,84.9,72.3,29.83,East,101,0.0,0.0,66,0.00,,,0.04,Wunderground v.1.15,2013-08-27 06:01:00,
2013-08-26 23:06:00,84.8,73.1,29.82,ESE,104,0.0,1.0,68,0.00,,,0.04,Wunderground v.1.15,2013-08-27 06:06:00,
2013-08-26 23:11:00,84.4,72.7,29.83,ESE,111,5.0,5.0,68,0.00,,,0.04,Wunderground v.1.15,2013-08-27 06:11:00,
2013-08-26 23:16:00,84.0,73.6,29.82,ESE,103,1.0,5.0,71,0.00,,,0.04,Wunderground v.1.15,2013-08-27 06:16:00,
2013-08-26 23:20:00,83.7,71.1,29.82,ESE,116,1.0,1.0,66,0.00,,,0.04,Wunderground v.1.15,2013-08-27 06:20:00,
2013-08-26 23:25:00,84.0,72.7,29.82,ESE,122,0.0,2.0,69,0.00,,,0.04,Wunderground v.1.15,2013-08-27 06:25:00,
2013-08-26 23:30:00,83.9,72.2,29.81,West,280,1.0,6.0,68,0.00,,,0.04,Wunderground v.1.15,2013-08-27 06:30:00,
2013-08-26 23:35:00,82.5,73.0,29.81,WNW,295,2.0,6.0,73,0.00,,,0.04,Wunderground v.1.15,2013-08-27 06:35:00,
2013-08-26 23:40:00,81.2,72.9,29.81,West,270,4.0,7.0,76,0.00,,,0.04,Wunderground v.1.15,2013-08-27 06:40:00,
2013-08-26 23:45:00,80.3,72.8,29.81,WNW,283,3.0,7.0,78,0.00,,,0.04,Wunderground v.1.15,2013-08-27 06:45:00,
2013-08-26 23:50:00,79.9,72.8,29.80,West,259,1.0,4.0,79,0.00,,,0.04,Wunderground v.1.15,2013-08-27 06:50:00,
2013-08-26 23:55:00,79.7,73.0,29.80,West,269,0.0,4.0,80,0.00,,,0.04,Wunderground v.1.15,2013-08-27 06:55:00,